Flag for U.S.A. Weather past 2 weeks in Winder, Georgia, U.S.A.

Now
82 °F

More clouds than sun.


Feels Like: 85 °F
Forecast: 64 / 80 °F
Wind: 3 mph from Southeast

Location: Winder-Barrow Airport

Current Time: May 25, 2015 at 3:51:52 PM

Latest Report: May 25, 2015 at 3:15 PM


Visibility: 10 mi

Pressure: 30.27 "Hg

Humidity: 62%

Dew point: 68 °F

Location of WinderLocation

Historic Weather in Winder — Graph

°F

Winder temperature yesterday

Maximum temperature yesterday: 84 °F (at 4:15 PM)
Minimum temperature yesterday: 59 °F (at 5:35 AM)
Average temperature yesterday: 72 °F

Past Weeks' High & Low Weather Summary

 TemperatureHumidityPressure
High91 °F (May 11, 5:15 PM)100% (May 11, 4:15 AM)30.44 "Hg (May 11, 4:15 AM)
Low54 °F (May 22, 4:35 AM)27% (May 13, 4:35 PM)29.91 "Hg (May 21, 3:15 AM)
Average74 °F70%30.20 "Hg
* Reported May 10 2:15 PM — May 25 2:35 PM, Winder, Weather by CustomWeather, © 2015

Note: Actual official high and low records may vary slightly from our data, if they occured in-between our weather recording intervals... More about our weather records

Advertising

Winder weather history for previous 24 hours

 ConditionsComfort  
Time TempWeatherWind HumidityBarometerVisibility
2:35 PM
Mon, May 25
82 °FMore clouds than sun.No wind58%30.28 "Hg10 mi
2:15 PM81 °FMore clouds than sun.6 mph66%30.29 "Hg10 mi
1:55 PM81 °FCloudy.9 mph66%30.29 "Hg10 mi
1:35 PM81 °FBroken clouds.5 mph66%30.30 "Hg10 mi
1:15 PM81 °FCloudy.3 mph66%30.31 "Hg10 mi
12:55 PM79 °FCloudy.5 mph70%30.32 "Hg10 mi
12:35 PM79 °FMostly cloudy.6 mph70%30.32 "Hg10 mi
12:15 PM77 °FMostly cloudy.3 mph74%30.32 "Hg10 mi
11:55 AM79 °FPartly sunny.6 mph70%30.32 "Hg10 mi
11:35 AM77 °FBroken clouds.No wind74%30.33 "Hg10 mi
11:15 AM77 °FMostly cloudy.No wind74%30.34 "Hg10 mi
10:55 AM77 °FPartly sunny.5 mph74%30.34 "Hg10 mi
10:35 AM73 °FMostly cloudy.5 mph83%30.35 "Hg10 mi
10:15 AM73 °FOvercast.3 mph78%30.35 "Hg10 mi
9:55 AM72 °FOvercast.No wind83%30.35 "Hg10 mi
9:35 AM72 °FOvercast.3 mph78%30.35 "Hg10 mi
9:15 AM70 °FOvercast.No wind83%30.35 "Hg10 mi
8:55 AM68 °FOvercast.No wind88%30.35 "Hg10 mi
8:35 AM66 °FMostly cloudy.No wind88%30.34 "Hg10 mi
8:15 AM64 °FBroken clouds.No wind94%30.33 "Hg10 mi
7:55 AM63 °FPartly sunny.No wind100%30.33 "Hg10 mi
7:35 AM63 °FMostly cloudy.No wind100%30.32 "Hg10 mi
7:15 AM63 °FPassing clouds.No wind100%30.33 "Hg10 mi
6:55 AM63 °FPassing clouds.No wind94%30.32 "Hg10 mi
6:35 AM63 °FPassing clouds.No wind94%30.32 "Hg10 mi
6:15 AM63 °FMostly cloudy.No wind100%30.32 "Hg10 mi
5:55 AM63 °FPassing clouds.No wind94%30.32 "Hg10 mi
5:35 AM63 °FClear.No wind100%30.32 "Hg10 mi
5:15 AM64 °FClear.No wind94%30.32 "Hg10 mi
4:55 AM64 °FClear.No wind94%30.31 "Hg10 mi
4:35 AM64 °FClear.3 mph94%30.31 "Hg10 mi
4:15 AM64 °FClear.3 mph94%30.31 "Hg10 mi
3:55 AM64 °FClear.No wind94%30.31 "Hg10 mi
3:35 AM66 °FClear.5 mph88%30.31 "Hg10 mi
3:15 AM68 °FClear.5 mph83%30.30 "Hg10 mi
2:55 AM68 °FClear.5 mph83%30.30 "Hg10 mi
2:35 AM68 °FClear.8 mph83%30.30 "Hg10 mi
2:15 AM68 °FClear.5 mph83%30.31 "Hg10 mi
1:55 AM68 °FClear.3 mph78%30.31 "Hg10 mi
1:35 AM70 °FClear.6 mph73%30.31 "Hg10 mi
1:15 AM70 °FClear.3 mph73%30.31 "Hg10 mi
12:55 AM70 °FClear.7 mph73%30.31 "Hg10 mi
12:35 AM72 °FClear.7 mph69%30.31 "Hg10 mi
12:15 AM72 °FClear.5 mph69%30.31 "Hg10 mi
11:55 PM
Sun, May 24
72 °FClear.7 mph69%30.31 "Hg10 mi
11:15 PM72 °FClear.6 mph69%30.31 "Hg10 mi
10:55 PM72 °FClear.5 mph69%30.31 "Hg10 mi
10:35 PM72 °FClear.3 mph69%30.30 "Hg10 mi
10:15 PM72 °FClear.3 mph69%30.29 "Hg10 mi
9:55 PM72 °FClear.3 mph69%30.29 "Hg10 mi
9:15 PM75 °FSunny.3 mph61%30.28 "Hg10 mi
8:55 PM77 °FSunny.3 mph57%30.27 "Hg10 mi
8:35 PM77 °FSunny.7 mph57%30.27 "Hg10 mi
8:15 PM79 °FSunny.6 mph54%30.27 "Hg10 mi
7:55 PM81 °FSunny.7 mph51%30.27 "Hg10 mi
7:35 PM81 °FScattered clouds.5 mph51%30.28 "Hg10 mi
7:15 PM81 °FScattered clouds.6 mph51%30.27 "Hg10 mi
6:55 PM82 °FScattered clouds.7 mph48%30.27 "Hg10 mi
6:35 PM82 °FScattered clouds.3 mph48%30.27 "Hg10 mi
6:15 PM82 °FScattered clouds.5 mph48%30.28 "Hg10 mi
5:15 PM84 °FPartly sunny.5 mph45%30.28 "Hg10 mi
4:55 PM82 °FSunny.6 mph48%30.29 "Hg10 mi
4:35 PM82 °FScattered clouds.6 mph48%30.29 "Hg10 mi
4:15 PM84 °FBroken clouds.8 mph48%30.29 "Hg10 mi
3:55 PM82 °FPartly sunny.7 mph48%30.31 "Hg10 mi
3:35 PM82 °FPartly sunny.5 mph48%30.31 "Hg10 mi
3:15 PM82 °FScattered clouds.9 mph48%30.32 "Hg10 mi
Weather by CustomWeather, © 2015

See weather overviewHow to use our weather pages